Saint Paul, MN

3:43 AM CST on February 27, 2017 (GMT -0600)
Saint Paul Downtown-Holman

Weather History for KSTP - November, 2013

Change the Weather History Date:

Friday, November 1, 2013

  Actual Average Record
Temperature  
Mean Temperature 50 °F -  
Max Temperature 60 °F 48 °F 80 °F (1999)
Min Temperature 39 °F 32 °F 21 °F (1996)
Degree Days  
Heating Degree Days 16    
Moisture  
Dew Point 35 °F    
Average Humidity 65    
Maximum Humidity 86    
Minimum Humidity 39    
Precipitation  
Precipitation 0.00 in - - ()
Sea Level Pressure  
Sea Level Pressure 29.63 in    
Wind  
Wind Speed 10 mph (NW)    
Max Wind Speed 15 mph    
Max Gust Speed 22 mph    
Visibility 10 miles    
Events      
Averages and records for this station are not official NWS values.
T = Trace of Precipitation, MM = Missing Value Source: NWS Daily Summary

Daily Weather History Graph

Daily Weather History Graph

Search for Another Location

Airport or City:

Trip Planner

Search our weather history database for the weather conditions in past years. The results will help you decide how hot, cold, wet, or windy it might be!

Date:

Astronomy

Nov. 01, 2013 Rise Set
Actual Time 7:50 AM CDT 6:00 PM CDT
Civil Twilight 7:20 AM CDT 6:30 PM CDT
Nautical Twilight 6:45 AM CDT 7:05 PM CDT
Astronomical Twilight 6:11 AM CDT 7:39 PM CDT
Moon 5:39 AM CDT (11/1) 4:56 PM CDT (11/1)
Length of Visible Light 11h 10m
Length of Day
10h 09m
Waning Crescent, 4% of the Moon is Illuminated
Nov 1
Waning Crescent
Nov 3
New
Nov 9
First Quarter
Nov 17
Full
Nov 25
Last Quarter

Hourly Weather History & Observations

Time (CDT) Temp. Windchill Dew Point Humidity Pressure Visibility Wind Dir Wind Speed Gust Speed Precip Events Conditions
12:53 AM 41.0 °F 34.3 °F 37.0 °F 86% 29.43 in 10.0 mi NW 11.5 mph - N/A   Overcast
1:53 AM 41.0 °F 34.3 °F 37.0 °F 86% 29.45 in 10.0 mi NW 11.5 mph - N/A   Overcast
2:53 AM 42.1 °F 37.1 °F 37.9 °F 85% 29.46 in 10.0 mi WNW 8.1 mph - N/A   Overcast
3:53 AM 42.1 °F 36.6 °F 37.9 °F 85% 29.48 in 10.0 mi WNW 9.2 mph - N/A   Overcast
4:22 AM 42.8 °F 38.0 °F 37.4 °F 81% 29.48 in 10.0 mi WNW 8.1 mph - N/A   Overcast
4:53 AM 42.1 °F 36.6 °F 37.0 °F 82% 29.50 in 10.0 mi WNW 9.2 mph - N/A   Overcast
5:53 AM 41.0 °F 35.2 °F 37.0 °F 86% 29.52 in 10.0 mi West 9.2 mph - N/A   Mostly Cloudy
6:53 AM 42.1 °F 37.7 °F 37.9 °F 85% 29.54 in 9.0 mi West 6.9 mph - N/A   Overcast
7:53 AM 41.0 °F 37.1 °F 37.0 °F 86% 29.55 in 9.0 mi West 5.8 mph - N/A   Overcast
8:53 AM 39.9 °F 34.5 °F 36.0 °F 86% 29.57 in 9.0 mi West 8.1 mph - N/A   Partly Cloudy
9:53 AM 42.1 °F 34.9 °F 34.0 °F 73% 29.60 in 9.0 mi WNW 13.8 mph - N/A   Partly Cloudy
10:40 AM 48.2 °F - 33.8 °F 58% 29.60 in 8.0 mi NW 11.5 mph - N/A   Mostly Cloudy
10:53 AM 48.0 °F - 35.1 °F 61% 29.61 in 8.0 mi WNW 11.5 mph - N/A   Mostly Cloudy
11:15 AM 48.2 °F - 35.6 °F 62% 29.61 in 8.0 mi WNW 10.4 mph - N/A   Scattered Clouds
11:53 AM 51.1 °F - 34.0 °F 52% 29.62 in 10.0 mi NW 10.4 mph - N/A   Partly Cloudy
12:53 PM 54.0 °F - 35.1 °F 49% 29.63 in 10.0 mi NW 15.0 mph - N/A   Clear
1:53 PM 57.0 °F - 35.1 °F 44% 29.63 in 10.0 mi WNW 9.2 mph - N/A   Clear
2:53 PM 60.1 °F - 35.1 °F 39% 29.64 in 10.0 mi WNW 9.2 mph - N/A   Clear
3:53 PM 57.9 °F - 33.1 °F 39% 29.66 in 10.0 mi NW 15.0 mph - N/A   Mostly Cloudy
4:53 PM 55.0 °F - 34.0 °F 45% 29.69 in 10.0 mi NW 12.7 mph - N/A   Overcast
5:53 PM 54.0 °F - 34.0 °F 47% 29.72 in 10.0 mi WNW 9.2 mph - N/A   Overcast
6:53 PM 48.0 °F - 34.0 °F 58% 29.76 in 10.0 mi North 13.8 mph 21.9 mph N/A   Overcast
7:53 PM 45.0 °F 40.1 °F 32.0 °F 60% 29.80 in 10.0 mi North 9.2 mph - N/A   Overcast
8:53 PM 43.0 °F 38.2 °F 30.9 °F 62% 29.83 in 10.0 mi NNW 8.1 mph - N/A   Mostly Cloudy
9:53 PM 46.9 °F - 30.0 °F 52% 29.84 in 10.0 mi NNW 4.6 mph - N/A   Clear
10:53 PM 46.0 °F 43.1 °F 30.0 °F 54% 29.86 in 10.0 mi NW 5.8 mph - N/A   Scattered Clouds
11:53 PM 42.1 °F - 30.9 °F 65% 29.87 in 10.0 mi Calm Calm - N/A   Overcast